{"data":{"norad_id":39476,"intl_designator":"2013-073A","name":"INMARSAT 5-F1","alt_names":[],"object_type":"PAYLOAD","status":"ACTIVE","operator":null,"country":"IM","launch_date":"2013-12-08","launch_site_code":"TYMSC","launch_vehicle":null,"mission":null,"orbit_class":"UNKNOWN","rcs_meters":7.1723,"size_class":null,"mass_kg":null,"dimensions":null,"purposes":["comms"],"wikipedia_slug":null,"has_3d_model":false,"image_url":null,"decayed_at":null,"tle_current":{"epoch":"2026-09-19T00:09:41.969664Z","epoch_age_seconds":154684,"freshness":"FRESH","line1":"1 39476U 13073A   26262.00673576  .00000023  00000+0  00000+0 0  9998","line2":"2 39476   0.0182 152.2024 0000345 352.8506 277.9432  1.00272104 46516","mean_motion":1.00272104,"eccentricity":3.45e-5,"inclination_deg":0.0182,"raan_deg":152.2024,"arg_perigee_deg":352.8506,"mean_anomaly_deg":277.9432,"bstar":0,"rev_number":4651,"period_min":1436.0923353119,"perigee_km":35785.05085398,"apogee_km":35787.960214315,"semimajor_km":42164.642534148,"source":"CELESTRAK","updated_at":"2026-09-20T09:00:35.207512Z"}}}